Flag for Malaysia Weather past 2 weeks in Kuala Lumpur, Malaysia

Now
82 °F

Passing clouds.


Feels Like: 91 °F
Forecast: 78 / 91 °F
Wind: 3 mph from West

Location: Sultan Abdul Aziz Shah-Subang


UV Index: 3 (Moderate)

Visibility: N/A


Pressure: 29.83 "Hg

Humidity: 84%

Dew point: 77 °F

Location of Kuala LumpurLocation

Historic Weather in Kuala Lumpur

°F

Kuala Lumpur temperature yesterday

Maximum temperature yesterday: 91 °F (at 1:00 PM)
Minimum temperature yesterday: 77 °F (at 5:00 AM)
Average temperature yesterday: 84 °F

Past Weeks' High & Low Weather Summary

 TemperatureHumidityPressure
High95 °F (Apr 7, 3:00 PM)100% (Apr 4, 3:00 AM)29.95 "Hg (Apr 4, 3:00 AM)
Low73 °F (Apr 12, 2:00 AM)44% (Apr 7, 3:00 PM)29.71 "Hg (Apr 11, 5:00 PM)
Average82 °F81%29.84 "Hg
* Reported Apr 3 9:00 PM — Apr 18 9:00 PM, Kuala Lumpur, Weather by CustomWeather, © 2014

Note: Actual official high and low records may vary slightly from our data, if they occured in-between our weather recording intervals... More about our weather records

Advertising

Historic Weather Conditions — Data for Previous 24 hours

 ConditionsComfort  
Time TempWeatherWind HumidityBarometerVisibility
9:00 PM
Apr 18
82 °FPassing clouds.3 mph84%29.83 "HgN/A
8:00 PM84 °FPartly cloudy.5 mph79%29.80 "HgN/A
7:00 PM86 °FBroken clouds.7 mph75%29.77 "HgN/A
6:00 PM86 °FBroken clouds.8 mph75%29.77 "HgN/A
5:00 PM88 °FBroken clouds.8 mph66%29.77 "HgN/A
4:00 PM90 °FBroken clouds.6 mph59%29.77 "HgN/A
3:00 PM91 °FBroken clouds.12 mph56%29.80 "HgN/A
2:00 PM88 °FBroken clouds.7 mph66%29.83 "HgN/A
1:00 PM86 °FPartly sunny.7 mph70%29.86 "HgN/A
12:00 PM82 °FPartly sunny.5 mph74%29.89 "HgN/A
11:00 AM82 °FPartly sunny.8 mph74%29.92 "HgN/A
10:00 AM81 °FBroken clouds.2 mph74%29.89 "Hg5 mi
9:00 AM81 °FMore clouds than sun.2 mph74%29.86 "Hg6 mi
8:00 AM81 °FBroken clouds.5 mph74%29.83 "HgN/A
7:00 AM79 °FPartly cloudy.1 mph79%29.83 "HgN/A
6:00 AM81 °FPartly cloudy.2 mph74%29.80 "HgN/A
5:00 AM81 °FPartly cloudy.5 mph79%29.80 "HgN/A
4:00 AM81 °FPartly cloudy.1 mph89%29.80 "HgN/A
3:00 AM81 °FPartly cloudy.1 mph84%29.80 "HgN/A
2:00 AM81 °FPartly cloudy.2 mph84%29.80 "HgN/A
1:00 AM81 °FPartly cloudy.1 mph89%29.83 "HgN/A
12:00 AM82 °FPassing clouds.No wind84%29.83 "Hg5 mi
11:00 PM
Apr 17
82 °FPassing clouds.2 mph84%29.80 "Hg5 mi
10:00 PM82 °FPartly cloudy.2 mph84%29.80 "Hg5 mi
Weather by CustomWeather, © 2014

See weather overview